Location: Ferchesar
(52.6477°N, 12.4298°E)
Time: 16:46:06
(UTC+01:00)

Explorer 11/Cluster Stage 4 - All Passes

Search period start: 26 February 2021 00:00
Search period end: 08 March 2021 00:00
Orbit: 467 x 1257 km, 28.8° (Epoch: 25 February)

Date Brightness Start Highest point End Pass type
(mag) Time Alt. Az. Time Alt. Az. Time Alt. Az.
26 Feb - 08:07:46 10° SSW 08:10:00 11° S 08:12:12 10° SSE daylight
27 Feb - 07:56:23 10° SSW 07:58:38 11° S 08:00:53 10° SSE daylight
28 Feb - 07:45:09 10° SSW 07:47:15 11° S 07:49:23 10° SSE daylight
01 Mar - 07:34:08 10° SSW 07:35:54 11° S 07:37:40 10° S daylight
02 Mar - 07:23:31 10° SSW 07:24:32 10° S 07:25:33 10° S daylight
